Tillbaka till svenska Fidonet
English   Information   Debug  
FILM   0/18
FNEWS_PUBLISH   4926
FN_SYSOP   42201
FN_SYSOP_OLD1   71952
FTP_FIDO   0/2
FTSC_PUBLIC   0/13972
FUNNY   0/4886
GENEALOGY.EUR   0/71
GET_INFO   105
GOLDED   0/408
HAM   4173/16660
HOLYSMOKE   0/6791
HOT_SITES   0/1
HTMLEDIT   0/71
HUB203   466
HUB_100   264
HUB_400   39
HUMOR   0/29
IC   0/2851
INTERNET   0/424
INTERUSER   0/3
IP_CONNECT   719
JAMNNTPD   0/233
JAMTLAND   0/47
KATTY_KORNER   0/41
LAN   0/16
LINUX-USER   0/19
LINUXHELP   0/1155
LINUX   0/22300
LINUX_BBS   0/957
mail   18.68
mail_fore_ok   249
MENSA   0/341
MODERATOR   0/102
MONTE   0/992
MOSCOW_OKLAHOMA   0/1245
MUFFIN   0/783
MUSIC   0/321
N203_STAT   938
N203_SYSCHAT   313
NET203   321
NET204   69
NET_DEV   0/10
NORD.ADMIN   0/101
NORD.CHAT   0/2572
NORD.FIDONET   189
NORD.HARDWARE   0/28
NORD.KULTUR   0/114
NORD.PROG   0/32
NORD.SOFTWARE   0/88
NORD.TEKNIK   0/58
NORD   0/453
OCCULT_CHAT   0/93
OS2BBS   0/787
OS2DOSBBS   0/580
OS2HW   0/42
OS2INET   0/37
OS2LAN   0/134
OS2PROG   0/36
OS2REXX   0/113
OS2USER-L   207
OS2   0/4830
OSDEBATE   2281/18996
PASCAL   0/490
PERL   0/457
PHP   0/45
POINTS   0/405
POLITICS   0/29554
POL_INC   0/14731
PSION   103
R20_ADMIN   1133
R20_AMATORRADIO   0/2
R20_BEST_OF_FIDONET   16
R20_CHAT   0/896
R20_DEPP   0/3
R20_DEV   400
R20_ECHO2   1830
R20_ECHOPRES   0/35
R20_ESTAT   0/719
R20_FIDONETPROG...
...RAM.MYPOINT
  0/2
R20_FIDONETPROGRAM   0/22
R20_FIDONET   0/248
R20_FILEFIND   0/24
R20_FILEFOUND   0/22
R20_HIFI   0/3
R20_INFO2   3723
R20_INTERNET   0/12940
R20_INTRESSE   0/60
R20_INTR_KOM   0/99
R20_KANDIDAT.CHAT   42
R20_KANDIDAT   28
R20_KOM_DEV   112
R20_KONTROLL   0/13360
R20_KORSET   0/18
R20_LOKALTRAFIK   0/24
R20_MODERATOR   0/1852
R20_NC   76
R20_NET200   245
R20_NETWORK.OTH...
...ERNETS
  0/13
R20_OPERATIVSYS...
...TEM.LINUX
  0/44
R20_PROGRAMVAROR   0/1
R20_REC2NEC   534
R20_SFOSM   0/341
R20_SF   0/108
R20_SPRAK.ENGLISH   0/1
R20_SQUISH   107
R20_TEST   2
R20_WORST_OF_FIDONET   20
RAR   0/9
RA_MULTI   106
RA_UTIL   0/162
REGCON.EUR   0/2068
REGCON   0/13
SCIENCE   0/1206
SF   0/239
SHAREWARE_SUPPORT   0/5146
SHAREWRE   0/14
SIMPSONS   0/169
STATS_OLD1   0/2539.065
STATS_OLD2   0/2530
STATS_OLD3   0/2395.095
STATS_OLD4   0/1692.25
SURVIVOR   0/495
SYSOPS_CORNER   0/3
SYSOP   0/84
TAGLINES   0/112
TEAMOS2   0/4530
TECH   0/2617
TEST.444   0/105
TRAPDOOR   0/19
TREK   0/755
TUB   0/290
UFO   0/40
UNIX   0/1316
USA_EURLINK   0/102
USR_MODEMS   0/1
VATICAN   0/2740
VIETNAM_VETS   0/14
VIRUS   0/378
VIRUS_INFO   0/201
VISUAL_BASIC   0/473
WHITEHOUSE   0/5187
WIN2000   0/101
WIN32   0/30
WIN95   0/4291
WIN95_OLD1   0/70272
WINDOWS   0/1517
WWB_SYSOP   0/419
WWB_TECH   0/810
ZCC-PUBLIC   0/1
ZEC   4

 
4DOS   0/134
ABORTION   0/7
ALASKA_CHAT   0/506
ALLFIX_FILE   0/1313
ALLFIX_FILE_OLD1   0/7997
ALT_DOS   0/152
AMATEUR_RADIO   0/1039
AMIGASALE   0/14
AMIGA   0/331
AMIGA_INT   0/1
AMIGA_PROG   0/20
AMIGA_SYSOP   0/26
ANIME   0/15
ARGUS   0/924
ASCII_ART   0/340
ASIAN_LINK   0/651
ASTRONOMY   0/417
AUDIO   0/92
AUTOMOBILE_RACING   0/105
BABYLON5   0/17862
BAG   135
BATPOWER   0/361
BBBS.ENGLISH   0/382
BBSLAW   0/109
BBS_ADS   0/5290
BBS_INTERNET   0/507
BIBLE   0/3563
BINKD   0/1119
BINKLEY   0/215
BLUEWAVE   0/2173
CABLE_MODEMS   0/25
CBM   0/46
CDRECORD   0/66
CDROM   0/20
CLASSIC_COMPUTER   0/378
COMICS   0/15
CONSPRCY   0/899
COOKING   41444
COOKING_OLD1   0/24719
COOKING_OLD2   0/40862
COOKING_OLD3   0/37489
COOKING_OLD4   0/35496
COOKING_OLD5   9370
C_ECHO   0/189
C_PLUSPLUS   0/31
DIRTY_DOZEN   0/201
DOORGAMES   0/2284
DOS_INTERNET   0/196
duplikat   6102
ECHOLIST   0/18295
EC_SUPPORT   0/318
ELECTRONICS   0/359
ELEKTRONIK.GER   1534
ENET.LINGUISTIC   0/13
ENET.POLITICS   0/4
ENET.SOFT   0/11701
ENET.SYSOP   34296
ENET.TALKS   0/32
ENGLISH_TUTOR   0/2000
EVOLUTION   0/1335
FDECHO   0/217
FDN_ANNOUNCE   0/7068
FIDONEWS   25062
FIDONEWS_OLD1   0/49742
FIDONEWS_OLD2   0/35949
FIDONEWS_OLD3   0/30874
FIDONEWS_OLD4   0/37224
FIDO_SYSOP   12922
FIDO_UTIL   0/180
FILEFIND   0/209
FILEGATE   0/212
Möte HAM, 16660 texter
 lista första sista föregående nästa
Text 2319, 787 rader
Skriven 2008-05-07 15:00:20 av Amsat List (1:323/120.0)
Ärende: [keps]  orb08128.amsa
=============================
[keps]  orb08128.amsa

Return-Path: <keps-bounces@amsat.org>
X-Rcpt: craig.healy@chowda.com
X-UIDL: 1210186207.3398

SB KEPS @ AMSAT  $ORB08128.O
Orbital Elements  08128.OSCAR

HR AMSAT ORBITAL ELEMENTS FOR OSCAR SATELLITES
FROM WA5QGD FORT WORTH,TX May 7, 2008
Send Subscribe/unsubscribe to KEPS at 
http://www.amsat.org/mailman/listinfo/keps
BID: ORB08128.O
TO ALL RADIO AMATEURS BT

Satellite: AO-07
Catalog number: 07530
Epoch time:      08127.95384232
Element set:    0171
Inclination:      101.4689 deg
RA of node:       160.8246 deg
Eccentricity:    0.0011917
Arg of perigee:   343.8693 deg
Mean anomaly:     016.1991 deg
Mean motion:   12.53573789 rev/day
Decay rate:       -2.7e-07 rev/day^2
Epoch rev:           53181
Checksum:              312

Satellite: AO-10
Catalog number: 14129
Epoch time:      08126.50483301
Element set:     503
Inclination:      025.9362 deg
RA of node:       216.9437 deg
Eccentricity:    0.5999433
Arg of perigee:   121.1126 deg
Mean anomaly:     311.0439 deg
Mean motion:   02.05867746 rev/day
Decay rate:       1.98e-06 rev/day^2
Epoch rev:           18722
Checksum:              296

Satellite: UO-11
Catalog number: 14781
Epoch time:      08127.59642208
Element set:    0662
Inclination:      098.1570 deg
RA of node:       161.0023 deg
Eccentricity:    0.0008725
Arg of perigee:   201.0807 deg
Mean anomaly:     159.0070 deg
Mean motion:   14.79640251 rev/day
Decay rate:       3.04e-06 rev/day^2
Epoch rev:           29770
Checksum:              277

Satellite: RS-15
Catalog number: 23439
Epoch time:      08127.68341596
Element set:    0141
Inclination:      064.8166 deg
RA of node:       202.1607 deg
Eccentricity:    0.0148831
Arg of perigee:   130.8709 deg
Mean anomaly:     230.5219 deg
Mean motion:   11.27551801 rev/day
Decay rate:       -3.9e-07 rev/day^2
Epoch rev:           55028
Checksum:              292

Satellite: FO-29
Catalog number: 24278
Epoch time:      08127.92983011
Element set:    0770
Inclination:      098.5888 deg
RA of node:       049.6115 deg
Eccentricity:    0.0350482
Arg of perigee:   322.5271 deg
Mean anomaly:     035.1894 deg
Mean motion:   13.52936799 rev/day
Decay rate:      -1.20e-06 rev/day^2
Epoch rev:           57881
Checksum:              342

Satellite: SO-33
Catalog number: 25509
Epoch time:      08127.53098321
Element set:    0192
Inclination:      031.4307 deg
RA of node:       191.8808 deg
Eccentricity:    0.0354458
Arg of perigee:   022.9937 deg
Mean anomaly:     338.6165 deg
Mean motion:   14.28213913 rev/day
Decay rate:       2.10e-06 rev/day^2
Epoch rev:           49765
Checksum:              312

Satellite: AO-40
Catalog number: 26609
Epoch time:      08126.61303281
Element set:      52
Inclination:      007.5023 deg
RA of node:       084.0929 deg
Eccentricity:    0.7913593
Arg of perigee:   078.4912 deg
Mean anomaly:     352.4791 deg
Mean motion:   01.25580755 rev/day
Decay rate:       -7.4e-07 rev/day^2
Epoch rev:            3450
Checksum:              296

Satellite: VO-52
Catalog number: 28650
Epoch time:      08127.80035798
Element set:    0923
Inclination:      097.7908 deg
RA of node:       195.5409 deg
Eccentricity:    0.0025942
Arg of perigee:   275.8090 deg
Mean anomaly:     084.0168 deg
Mean motion:   14.81456883 rev/day
Decay rate:      -1.25e-06 rev/day^2
Epoch rev:           16247
Checksum:              340

Satellite: PO-63
Catalog number: 29712
Epoch time:      08128.25766293
Element set:     424
Inclination:      097.8773 deg
RA of node:       187.2084 deg
Eccentricity:    0.0014775
Arg of perigee:   149.8384 deg
Mean anomaly:     210.3678 deg
Mean motion:   14.80137178 rev/day
Decay rate:       6.78e-06 rev/day^2
Epoch rev:            7141
Checksum:              342

/EX
SB KEPS @ AMSAT  $ORB08128.D
Orbital Elements  08128.MICROS

HR AMSAT ORBITAL ELEMENTS FOR THE MICROSATS
FROM WA5QGD FORT WORTH,TX May 7, 2008
Send Subscribe/unsubscribe to KEPS at 
http://www.amsat.org/mailman/listinfo/keps
BID: ORB08128.D
TO ALL RADIO AMATEURS BT

Satellite: AO-16
Catalog number: 20439
Epoch time:      08127.56042894
Element set:    0314
Inclination:      098.2278 deg
RA of node:       109.7572 deg
Eccentricity:    0.0010284
Arg of perigee:   305.6989 deg
Mean anomaly:     054.3230 deg
Mean motion:   14.31792579 rev/day
Decay rate:        2.4e-07 rev/day^2
Epoch rev:           95496
Checksum:              326

Satellite: LO-19
Catalog number: 20442
Epoch time:      08127.89412685
Element set:    0241
Inclination:      098.1995 deg
RA of node:       118.7340 deg
Eccentricity:    0.0011123
Arg of perigee:   301.2435 deg
Mean anomaly:     058.7657 deg
Mean motion:   14.32031366 rev/day
Decay rate:        7.7e-07 rev/day^2
Epoch rev:           95516
Checksum:              299

Satellite: AO-27
Catalog number: 22825
Epoch time:      08127.61630396
Element set:    0963
Inclination:      098.3815 deg
RA of node:       089.2047 deg
Eccentricity:    0.0008876
Arg of perigee:   029.7879 deg
Mean anomaly:     330.3804 deg
Mean motion:   14.29238208 rev/day
Decay rate:        6.0e-07 rev/day^2
Epoch rev:           76183
Checksum:              335

Satellite: IO-26
Catalog number: 22826
Epoch time:      08128.44752014
Element set:     667
Inclination:      098.3736 deg
RA of node:       090.9322 deg
Eccentricity:    0.0009547
Arg of perigee:   023.0564 deg
Mean anomaly:     337.1043 deg
Mean motion:   14.29486431 rev/day
Decay rate:       -7.0e-08 rev/day^2
Epoch rev:           76204
Checksum:              301

